Home   Weather   Tulln an der Donau   Past weeks

Flag for Austria Past Weather in Tulln an der Donau, Lower Austria, Austria — Yesterday and Last 2 Weeks

Now
72 °F

Partly sunny.


Feels Like: 77 °F
Forecast: 44 / 56 °F
Wind: 7 mph from Northeast

Location: Tulln Airport

Current Time: Apr 25, 2017 at 2:51:17 pm

Latest Report: Apr 25, 2017 at 2:20 pm


Visibility: 31 mi

Pressure: 29.74 "Hg

Humidity: 44%

Dew Point: 48 °F

Location of Tulln an der DonauLocation

Past Weather in Tulln an der Donau — Graph

°F

Tulln an der Donau Temperature Yesterday

Maximum temperature yesterday: 61 °F (at 3:50 pm)
Minimum temperature yesterday: 34 °F (at 5:50 am)
Average temperature yesterday: 52 °F

High & Low Weather Summary for the Past Weeks

 TemperatureHumidityPressure
High75 °F (Apr 10, 4:50 pm)100% (Apr 19, 3:20 pm)30.45 "Hg (Apr 19, 3:20 pm)
Low34 °F (Apr 19, 6:50 am)31% (Apr 23, 4:50 pm)29.74 "Hg (Apr 25, 11:50 am)
Average50 °F64%30.06 "Hg
* Reported Apr 10 1:20 pm — Apr 25 1:20 pm, Tulln an der Donau, Weather by CustomWeather, © 2017

Note: Actual official high and low records may vary slightly from our data, if they occured in-between our weather recording intervals... More about our weather records

Advertising

Tulln an der Donau Weather History for the Previous 24 Hours

Scroll right to see more
 ConditionsComfort  
Time TempWeatherWind HumidityBarometerVisibility
1:20 pm
Tue, Apr 25
68 °FScattered clouds.2 mph49%29.74 "Hg31 mi
12:50 pm68 °FPartly sunny.3 mph46%29.74 "Hg31 mi
12:20 pm66 °FPartly sunny.5 mph52%29.74 "Hg31 mi
11:50 am64 °FPartly sunny.5 mph56%29.74 "Hg31 mi
11:20 am63 °FPartly sunny.3 mph59%29.77 "Hg31 mi
10:50 am61 °FPartly sunny.3 mph59%29.77 "Hg37 mi
10:20 am59 °FPartly sunny.2 mph68%29.77 "Hg37 mi
9:50 am57 °FPartly sunny.2 mph63%29.77 "Hg37 mi
9:20 am52 °FPartly sunny.2 mph72%29.77 "Hg37 mi
8:50 am50 °FPartly sunny.2 mph71%29.77 "Hg37 mi
8:20 am46 °FPartly sunny.2 mph82%29.77 "Hg37 mi
7:50 am45 °FPartly sunny.3 mph87%29.77 "Hg37 mi
7:20 am41 °FPartly sunny.2 mph93%29.77 "Hg37 mi
6:50 am39 °FPartly sunny.2 mph93%29.77 "Hg12 mi
5:50 am36 °FScattered clouds.2 mph93%29.77 "Hg9 mi
10:50 pm
Mon, Apr 24
46 °FClear.3 mph76%29.86 "Hg12 mi
9:50 pm50 °FClear.2 mph67%29.89 "Hg12 mi
8:50 pm54 °FPassing clouds.3 mph58%29.89 "Hg19 mi
7:50 pm55 °FScattered clouds.3 mph55%29.89 "Hg31 mi
6:50 pm59 °FPartly sunny.9 mph45%29.92 "Hg37 mi
5:50 pm61 °FScattered clouds.6 mph39%29.95 "Hg37 mi
4:50 pm61 °FPassing clouds.9 mph39%29.95 "Hg31 mi
3:50 pm61 °FPassing clouds.7 mph39%29.98 "Hg31 mi
3:20 pm59 °FPassing clouds.10 mph42%30.01 "Hg31 mi
2:20 pm57 °FPassing clouds.12 mph41%30.04 "Hg31 mi
Weather by CustomWeather, © 2017

See weather overviewHow to use our weather pages